Time,TemperatureF,DewpointF,PressureIn,WindDirection,WindDirectionDegrees,WindSpeedMPH,WindSpeedGustMPH,Humidity,HourlyPrecipIn,Conditions,Clouds,dailyrainin,SoftwareType,DateUTC
2013-11-23 00:09:00,5.0,3.0,29.46,North,-999,0.0,-999.0,90,-99.99,,,0.00,weatherlink.com 1.10,2013-11-23 09:09:00,
2013-11-23 00:24:00,4.7,2.0,29.48,North,-999,0.0,-999.0,90,-99.99,,,0.00,weatherlink.com 1.10,2013-11-23 09:24:00,
2013-11-23 00:39:00,4.7,2.0,29.49,North,-999,0.0,-999.0,90,-99.99,,,0.00,weatherlink.com 1.10,2013-11-23 09:39:00,
2013-11-23 00:54:00,4.5,2.0,29.50,North,-999,0.0,-999.0,90,-99.99,,,0.00,weatherlink.com 1.10,2013-11-23 09:54:00,
2013-11-23 01:09:00,4.0,2.0,29.50,North,-999,0.0,-999.0,90,-99.99,,,0.00,weatherlink.com 1.10,2013-11-23 10:09:00,
2013-11-23 01:24:00,3.6,1.0,29.50,North,-999,0.0,-999.0,89,-99.99,,,0.00,weatherlink.com 1.10,2013-11-23 10:24:00,
2013-11-23 01:39:00,3.2,1.0,29.51,North,-999,0.0,-999.0,89,-99.99,,,0.00,weatherlink.com 1.10,2013-11-23 10:39:00,
2013-11-23 02:09:00,2.8,0.0,29.52,North,-999,0.0,-999.0,89,-99.99,,,0.00,weatherlink.com 1.10,2013-11-23 11:09:00,
2013-11-23 02:24:00,2.8,0.0,29.52,North,-999,0.0,-999.0,89,-99.99,,,0.00,weatherlink.com 1.10,2013-11-23 11:24:00,
2013-11-23 02:39:00,2.5,0.0,29.54,North,-999,0.0,-999.0,89,-99.99,,,0.00,weatherlink.com 1.10,2013-11-23 11:39:00,
2013-11-23 02:55:00,2.1,0.0,29.54,North,-999,0.0,-999.0,89,-99.99,,,0.00,weatherlink.com 1.10,2013-11-23 11:55:00,
2013-11-23 03:10:00,1.9,-1.0,29.55,North,-999,0.0,-999.0,89,-99.99,,,0.00,weatherlink.com 1.10,2013-11-23 12:10:00,
2013-11-23 03:25:00,1.5,-1.0,29.55,North,360,0.0,-999.0,89,-99.99,,,0.00,weatherlink.com 1.10,2013-11-23 12:25:00,
2013-11-23 03:40:00,0.8,-2.0,29.55,North,360,0.0,-999.0,89,-99.99,,,0.00,weatherlink.com 1.10,2013-11-23 12:40:00,
2013-11-23 03:55:00,0.5,-2.0,29.57,North,-999,0.0,-999.0,88,-99.99,,,0.00,weatherlink.com 1.10,2013-11-23 12:55:00,
2013-11-23 04:10:00,0.6,-2.0,29.58,North,-999,0.0,-999.0,89,-99.99,,,0.00,weatherlink.com 1.10,2013-11-23 13:10:00,
2013-11-23 04:25:00,0.7,-2.0,29.57,North,-999,0.0,-999.0,89,-99.99,,,0.00,weatherlink.com 1.10,2013-11-23 13:25:00,
2013-11-23 04:40:00,0.8,-2.0,29.57,North,360,0.0,-999.0,89,-99.99,,,0.00,weatherlink.com 1.10,2013-11-23 13:40:00,
2013-11-23 04:55:00,0.9,-2.0,29.56,North,-999,0.0,-999.0,89,-99.99,,,0.00,weatherlink.com 1.10,2013-11-23 13:55:00,
2013-11-23 05:25:00,1.8,-1.0,29.58,North,-999,0.0,-999.0,89,-99.99,,,0.00,weatherlink.com 1.10,2013-11-23 14:25:00,
2013-11-23 05:40:00,2.0,-1.0,29.58,North,360,0.0,-999.0,89,-99.99,,,0.00,weatherlink.com 1.10,2013-11-23 14:40:00,
2013-11-23 05:55:00,1.9,-1.0,29.58,North,360,0.0,-999.0,89,-99.99,,,0.00,weatherlink.com 1.10,2013-11-23 14:55:00,
2013-11-23 06:10:00,1.8,-1.0,29.58,North,-999,0.0,-999.0,89,-99.99,,,0.00,weatherlink.com 1.10,2013-11-23 15:10:00,
2013-11-23 06:26:00,1.7,-1.0,29.58,North,-999,0.0,-999.0,89,-99.99,,,0.00,weatherlink.com 1.10,2013-11-23 15:26:00,
2013-11-23 06:41:00,1.8,-1.0,29.59,North,-999,0.0,-999.0,89,-99.99,,,0.00,weatherlink.com 1.10,2013-11-23 15:41:00,
2013-11-23 06:56:00,1.8,-1.0,29.59,North,360,0.0,-999.0,89,-99.99,,,0.00,weatherlink.com 1.10,2013-11-23 15:56:00,
2013-11-23 07:11:00,2.3,0.0,29.61,North,-999,0.0,-999.0,90,-99.99,,,0.00,weatherlink.com 1.10,2013-11-23 16:11:00,
2013-11-23 07:26:00,2.6,0.0,29.61,North,-999,0.0,-999.0,89,-99.99,,,0.00,weatherlink.com 1.10,2013-11-23 16:26:00,
2013-11-23 07:41:00,2.6,0.0,29.62,North,-999,0.0,-999.0,89,-99.99,,,0.00,weatherlink.com 1.10,2013-11-23 16:41:00,
2013-11-23 07:56:00,2.8,1.0,29.63,North,-999,0.0,-999.0,90,-99.99,,,0.00,weatherlink.com 1.10,2013-11-23 16:56:00,
2013-11-23 08:11:00,2.8,0.0,29.65,North,360,0.0,-999.0,89,-99.99,,,0.00,weatherlink.com 1.10,2013-11-23 17:11:00,
2013-11-23 08:26:00,2.8,0.0,29.66,North,-999,0.0,-999.0,89,-99.99,,,0.00,weatherlink.com 1.10,2013-11-23 17:26:00,
2013-11-23 08:41:00,2.8,0.0,29.67,North,-999,0.0,-999.0,89,-99.99,,,0.00,weatherlink.com 1.10,2013-11-23 17:41:00,
2013-11-23 08:56:00,1.9,-1.0,29.68,North,-999,0.0,-999.0,89,-99.99,,,0.00,weatherlink.com 1.10,2013-11-23 17:56:00,
2013-11-23 09:11:00,1.6,-1.0,29.69,North,360,0.0,-999.0,89,-99.99,,,0.00,weatherlink.com 1.10,2013-11-23 18:11:00,
2013-11-23 09:26:00,1.7,-1.0,29.69,North,360,0.0,-999.0,89,-99.99,,,0.00,weatherlink.com 1.10,2013-11-23 18:26:00,
2013-11-23 09:41:00,2.0,-1.0,29.70,North,-999,0.0,-999.0,89,-99.99,,,0.00,weatherlink.com 1.10,2013-11-23 18:41:00,
2013-11-23 09:57:00,2.3,0.0,29.71,North,-999,0.0,-999.0,89,-99.99,,,0.00,weatherlink.com 1.10,2013-11-23 18:57:00,
2013-11-23 10:12:00,2.4,0.0,29.72,North,-999,0.0,-999.0,89,-99.99,,,0.00,weatherlink.com 1.10,2013-11-23 19:12:00,
2013-11-23 10:27:00,2.5,0.0,29.73,North,360,0.0,-999.0,89,-99.99,,,0.00,weatherlink.com 1.10,2013-11-23 19:27:00,
2013-11-23 10:42:00,2.6,0.0,29.74,North,-999,0.0,-999.0,89,-99.99,,,0.00,weatherlink.com 1.10,2013-11-23 19:42:00,
2013-11-23 10:57:00,2.6,0.0,29.75,North,-999,0.0,-999.0,89,-99.99,,,0.00,weatherlink.com 1.10,2013-11-23 19:57:00,
2013-11-23 11:12:00,2.8,0.0,29.75,North,360,0.0,-999.0,89,-99.99,,,0.00,weatherlink.com 1.10,2013-11-23 20:12:00,
2013-11-23 11:42:00,3.5,1.0,29.76,North,360,0.0,-999.0,89,-99.99,,,0.00,weatherlink.com 1.10,2013-11-23 20:42:00,
2013-11-23 11:57:00,3.4,1.0,29.78,North,-999,0.0,-999.0,89,-99.99,,,0.00,weatherlink.com 1.10,2013-11-23 20:57:00,
2013-11-23 12:12:00,3.1,1.0,29.78,North,-999,0.0,-999.0,89,-99.99,,,0.00,weatherlink.com 1.10,2013-11-23 21:12:00,
2013-11-23 12:27:00,2.8,0.0,29.78,North,-999,0.0,-999.0,89,-99.99,,,0.00,weatherlink.com 1.10,2013-11-23 21:27:00,
2013-11-23 12:42:00,2.7,0.0,29.79,North,360,0.0,-999.0,89,-99.99,,,0.00,weatherlink.com 1.10,2013-11-23 21:42:00,
2013-11-23 12:57:00,2.6,0.0,29.80,North,-999,0.0,-999.0,89,-99.99,,,0.00,weatherlink.com 1.10,2013-11-23 21:57:00,
2013-11-23 13:12:00,2.5,0.0,29.81,North,-999,0.0,-999.0,89,-99.99,,,0.00,weatherlink.com 1.10,2013-11-23 22:12:00,